Location: Izdebno
(52.6670°N, 16.2170°E)
Time: 12:31:35
(UTC+02:00)

A-11 Canister half - Pass Details

Date: 14 February 2023
Orbit: 1526 x 1682 km, 47.3° (Epoch: 26 March)

Event Time Altitude Azimuth Distance (km) Brightness Sun altitude
Rises 08:06:14 0° 282° (WNW) 4,681 10.9 6.2°
Reaches altitude 10° 08:09:26 10° 276° (W) 3,699 10.5 6.6°
Maximum altitude 08:18:01 44° 209° (SSW) 2,037 9.9 7.7°
Drops below altitude 10° 08:26:45 10° 141° (SE) 3,761 13.0 8.8°
Sets 08:30:02 0° 135° (SE) 4,764 13.7 9.2°
